TimeCST,TemperatureF,Dew PointF,Humidity,Sea Level PressureIn,VisibilityMPH,Wind Direction,Wind SpeedMPH,Gust SpeedMPH,PrecipitationIn,Events,Conditions,WindDirDegrees,DateUTC
12:15 AM,25.0,22.1,89,29.99,10.0,SE,6.9,-,N/A,,Clear,130,2013-02-17 06:15:00
12:35 AM,24.6,21.6,88,29.99,10.0,SE,6.9,-,N/A,,Clear,140,2013-02-17 06:35:00
12:55 AM,23.9,21.2,89,29.98,10.0,SE,5.8,-,N/A,,Clear,130,2013-02-17 06:55:00
1:15 AM,23.5,21.0,90,29.98,10.0,SE,5.8,-,N/A,,Clear,140,2013-02-17 07:15:00
1:35 AM,23.7,21.6,91,29.98,10.0,ESE,5.8,-,N/A,,Clear,120,2013-02-17 07:35:00
1:55 AM,23.7,21.7,92,29.98,7.0,ESE,4.6,-,N/A,,Clear,120,2013-02-17 07:55:00
2:15 AM,22.5,20.3,91,29.98,7.0,ESE,6.9,-,N/A,,Scattered Clouds,120,2013-02-17 08:15:00
2:35 AM,22.3,20.5,93,29.97,10.0,ESE,6.9,-,N/A,,Scattered Clouds,120,2013-02-17 08:35:00
2:55 AM,21.7,19.4,91,29.97,10.0,SE,6.9,-,N/A,,Clear,130,2013-02-17 08:55:00
3:15 AM,22.1,19.9,91,29.97,10.0,ESE,6.9,-,N/A,,Clear,120,2013-02-17 09:15:00
3:35 AM,21.9,19.9,92,29.97,10.0,SE,5.8,-,N/A,,Clear,130,2013-02-17 09:35:00
3:55 AM,21.0,19.0,92,29.95,10.0,ESE,5.8,-,N/A,,Clear,120,2013-02-17 09:55:00
4:15 AM,21.7,19.9,93,29.95,10.0,ESE,6.9,-,N/A,,Clear,120,2013-02-17 10:15:00
4:35 AM,21.9,19.8,91,29.95,10.0,SE,6.9,-,N/A,,Clear,130,2013-02-17 10:35:00
4:55 AM,22.8,20.1,89,29.95,10.0,SE,6.9,-,N/A,,Clear,140,2013-02-17 10:55:00
5:15 AM,21.7,19.2,90,29.93,10.0,SE,6.9,-,N/A,,Clear,140,2013-02-17 11:15:00
5:35 AM,22.5,20.1,91,29.93,10.0,SE,6.9,-,N/A,,Clear,140,2013-02-17 11:35:00
5:55 AM,21.7,19.0,89,29.93,10.0,SE,6.9,-,N/A,,Clear,140,2013-02-17 11:55:00
6:15 AM,21.2,18.9,91,29.92,10.0,SE,6.9,-,N/A,,Clear,140,2013-02-17 12:15:00
6:35 AM,21.7,19.2,90,29.92,10.0,SE,6.9,-,N/A,,Clear,140,2013-02-17 12:35:00
6:55 AM,21.9,19.2,89,29.91,10.0,SE,5.8,-,N/A,,Clear,140,2013-02-17 12:55:00
7:15 AM,20.8,18.1,89,29.91,10.0,SSE,3.5,-,N/A,,Clear,160,2013-02-17 13:15:00
7:35 AM,20.8,18.5,91,29.91,10.0,SSE,6.9,-,N/A,,Clear,160,2013-02-17 13:35:00
7:55 AM,23.7,20.1,86,29.91,10.0,SE,8.1,-,N/A,,Clear,140,2013-02-17 13:55:00
8:15 AM,25.5,21.4,84,29.90,10.0,SE,9.2,-,N/A,,Clear,140,2013-02-17 14:15:00
8:35 AM,26.6,22.1,83,29.90,10.0,SE,8.1,-,N/A,,Clear,140,2013-02-17 14:35:00
8:55 AM,28.0,22.6,80,29.89,10.0,SE,12.7,-,N/A,,Clear,140,2013-02-17 14:55:00
9:15 AM,29.1,23.4,79,29.88,10.0,SE,13.8,-,N/A,,Clear,140,2013-02-17 15:15:00
9:35 AM,30.4,23.9,77,29.87,10.0,SE,9.2,-,N/A,,Clear,140,2013-02-17 15:35:00
9:55 AM,32.0,25.0,75,29.87,10.0,SSE,11.5,-,N/A,,Clear,150,2013-02-17 15:55:00
10:15 AM,32.5,25.5,75,29.86,10.0,SSE,12.7,-,N/A,,Clear,150,2013-02-17 16:15:00
10:35 AM,34.0,27.0,75,29.85,10.0,SE,11.5,-,N/A,,Clear,130,2013-02-17 16:35:00
10:55 AM,34.7,27.1,74,29.85,10.0,SE,12.7,-,N/A,,Clear,140,2013-02-17 16:55:00
11:15 AM,36.5,28.6,73,29.84,10.0,SE,12.7,-,N/A,,Clear,140,2013-02-17 17:15:00
11:35 AM,38.3,29.7,71,29.82,10.0,SE,13.8,-,N/A,,Clear,140,2013-02-17 17:35:00
11:55 AM,39.4,30.9,72,29.81,10.0,SE,15.0,-,N/A,,Clear,140,2013-02-17 17:55:00
12:15 PM,41.0,32.0,70,29.79,10.0,SE,15.0,-,N/A,,Clear,140,2013-02-17 18:15:00
12:35 PM,42.8,32.7,68,29.77,10.0,SSE,15.0,-,N/A,,Clear,150,2013-02-17 18:35:00
12:55 PM,45.1,33.8,65,29.76,10.0,SE,15.0,-,N/A,,Clear,140,2013-02-17 18:55:00
1:15 PM,46.2,34.5,64,29.73,10.0,SE,17.3,-,N/A,,Clear,140,2013-02-17 19:15:00
1:35 PM,47.8,36.0,63,29.72,10.0,SE,17.3,-,N/A,,Clear,140,2013-02-17 19:35:00
1:55 PM,48.9,35.1,59,29.71,10.0,SE,18.4,-,N/A,,Clear,140,2013-02-17 19:55:00
2:15 PM,48.6,35.1,60,29.70,10.0,SSE,17.3,21.9,N/A,,Clear,150,2013-02-17 20:15:00
2:35 PM,48.7,35.6,60,29.69,10.0,SSE,17.3,-,N/A,,Clear,150,2013-02-17 20:35:00
2:55 PM,49.5,36.5,61,29.68,10.0,SSE,17.3,-,N/A,,Clear,150,2013-02-17 20:55:00
3:15 PM,50.7,36.1,57,29.67,10.0,SSE,19.6,-,N/A,,Clear,150,2013-02-17 21:15:00
3:35 PM,50.7,37.4,60,29.65,10.0,SE,17.3,21.9,N/A,,Clear,140,2013-02-17 21:35:00
3:55 PM,51.8,38.1,60,29.64,10.0,SE,17.3,23.0,N/A,,Clear,140,2013-02-17 21:55:00
4:15 PM,51.8,38.1,60,29.63,10.0,SE,19.6,-,N/A,,Clear,140,2013-02-17 22:15:00
4:35 PM,51.8,38.5,60,29.63,10.0,SE,16.1,-,N/A,,Clear,140,2013-02-17 22:35:00
4:55 PM,50.5,38.3,63,29.62,10.0,SE,16.1,-,N/A,,Clear,140,2013-02-17 22:55:00
5:15 PM,49.8,38.1,64,29.62,10.0,SE,13.8,-,N/A,,Clear,140,2013-02-17 23:15:00
5:35 PM,47.5,37.0,67,29.62,10.0,SSE,11.5,-,N/A,,Clear,150,2013-02-17 23:35:00
6:15 PM,44.2,36.1,73,29.62,10.0,SSE,12.7,-,N/A,,Clear,150,2013-02-18 00:15:00
6:35 PM,43.7,35.6,73,29.61,10.0,SSE,13.8,-,N/A,,Clear,150,2013-02-18 00:35:00
6:55 PM,42.8,35.6,76,29.61,10.0,SSE,12.7,-,N/A,,Clear,150,2013-02-18 00:55:00
7:15 PM,43.5,35.2,73,29.60,10.0,SSE,10.4,-,N/A,,Clear,150,2013-02-18 01:15:00
7:35 PM,43.2,34.7,72,29.60,10.0,SSE,11.5,-,N/A,,Clear,150,2013-02-18 01:35:00
7:55 PM,43.2,34.2,71,29.59,10.0,SSE,11.5,-,N/A,,Clear,150,2013-02-18 01:55:00
8:15 PM,42.6,34.0,71,29.59,10.0,SSE,9.2,-,N/A,,Clear,150,2013-02-18 02:15:00
8:35 PM,41.7,33.8,73,29.59,10.0,SSE,8.1,-,N/A,,Clear,150,2013-02-18 02:35:00
8:55 PM,41.2,33.8,75,29.59,10.0,SSE,6.9,-,N/A,,Clear,150,2013-02-18 02:55:00
9:15 PM,40.1,33.1,76,29.58,10.0,SSE,6.9,-,N/A,,Clear,150,2013-02-18 03:15:00
9:35 PM,40.5,33.3,75,29.58,10.0,SSE,6.9,-,N/A,,Clear,150,2013-02-18 03:35:00
9:55 PM,40.1,33.1,76,29.57,10.0,SSE,9.2,-,N/A,,Clear,150,2013-02-18 03:55:00
10:15 PM,39.7,32.7,76,29.57,10.0,SSE,8.1,-,N/A,,Clear,150,2013-02-18 04:15:00
10:35 PM,38.3,32.0,78,29.56,10.0,SE,8.1,-,N/A,,Clear,140,2013-02-18 04:35:00
10:55 PM,35.8,31.8,86,29.56,10.0,ESE,6.9,-,N/A,,Clear,120,2013-02-18 04:55:00
11:15 PM,36.7,31.8,83,29.55,10.0,SE,5.8,-,N/A,,Clear,140,2013-02-18 05:15:00
11:35 PM,36.9,32.0,83,29.54,10.0,SE,9.2,-,N/A,,Clear,140,2013-02-18 05:35:00
11:55 PM,36.9,32.0,83,29.55,10.0,ESE,6.9,-,N/A,,Clear,120,2013-02-18 05:55:00